Flag for Switzerland Weather past 2 weeks in Sion, Valais, Switzerland

Now
71 °F

Mild.


Feels Like: 75 °F
Forecast: 73 / 97 °F
Wind: 1 mph from Southeast

Location: Sion

Current Time: Jul 5, 2015 at 4:45:09 AM

Latest Report: Jul 5, 2015 at 4:00 AM


Visibility: N/A

Pressure: 30.11 "Hg (28.36 "Hg at 514m altitude)

Humidity: 68%

Dew point: 60 °F

Location of SionLocation

Historic Weather in Sion — Graph

°F

Sion temperature yesterday

Maximum temperature yesterday: 97 °F (at 4:00 PM)
Minimum temperature yesterday: 70 °F (at 6:00 AM)
Average temperature yesterday: 84 °F

Past Weeks' High & Low Weather Summary

 TemperatureHumidityPressure
High97 °F (Jul 4, 4:00 PM)90% (Jun 23, 6:00 AM)30.26 "Hg (Jun 23, 6:00 AM)
Low49 °F (Jun 24, 6:00 AM)26% (Jun 29, 6:00 PM)29.74 "Hg (Jun 23, 12:00 AM)
Average72 °F51%30.06 "Hg
* Reported Jun 20 3:00 AM — Jul 5 3:00 AM, Sion, Weather by CustomWeather, © 2015

Note: Actual official high and low records may vary slightly from our data, if they occured in-between our weather recording intervals... More about our weather records

Advertising

Sion weather history for previous 24 hours

 ConditionsComfort  
Time TempWeatherWind HumidityBarometerVisibility
3:00 AM
Sun, Jul 5
73 °FMild.1 mph64%30.10 "HgN/A
2:00 AM74 °FClear.1 mph64%30.11 "Hg19 mi
1:00 AM76 °FMild.No wind62%30.10 "HgN/A
12:00 AM77 °FMild.5 mph56%30.08 "HgN/A
11:00 PM
Sat, Jul 4
79 °FClear.2 mph53%30.07 "Hg19 mi
10:00 PM85 °FWarm.2 mph42%30.04 "HgN/A
9:00 PM90 °FHot.7 mph33%30.01 "HgN/A
8:00 PM92 °FPassing clouds.10 mph30%29.99 "Hg19 mi
7:00 PM94 °FExtremely hot.16 mph31%29.97 "HgN/A
6:00 PM96 °FExtremely hot.16 mph28%29.97 "HgN/A
5:00 PM96 °FScattered clouds.16 mph28%29.98 "Hg19 mi
4:00 PM97 °FExtremely hot.17 mph27%29.98 "HgN/A
3:00 PM97 °FExtremely hot.12 mph29%30.01 "HgN/A
2:00 PM94 °FScattered clouds.8 mph29%30.04 "Hg19 mi
1:00 PM91 °FHot.2 mph32%30.08 "HgN/A
12:00 PM88 °FPleasantly warm.2 mph36%30.11 "HgN/A
11:00 AM85 °FScattered clouds.2 mph40%30.14 "Hg19 mi
10:00 AM81 °FWarm.6 mph45%30.18 "HgN/A
9:00 AM77 °FMild.3 mph55%30.22 "HgN/A
8:00 AM76 °FScattered clouds.5 mph52%30.23 "Hg19 mi
7:00 AM71 °FMild.1 mph60%30.24 "HgN/A
6:00 AM70 °FMild.1 mph64%30.25 "HgN/A
5:00 AM73 °FPassing clouds.3 mph54%30.23 "Hg19 mi
4:00 AM72 °FMild.No wind69%30.24 "HgN/A
Weather by CustomWeather, © 2015

See weather overviewHow to use our weather pages